Location: Leipzig
(51.3203°N, 12.3761°E)
Time: 17:12:47
(UTC+01:00)

ISS - Visible Passes

Search period start: 08 December 2025 00:00
Search period end: 18 December 2025 00:00
Orbit: 416 x 421 km, 51.6° (Epoch: 08 December)

Date Brightness Start Highest point End Pass type
(mag) Time Alt. Az. Time Alt. Az. Time Alt. Az.
11 Dec -0.4 07:15:26 10° S 07:17:10 13° SE 07:18:55 10° ESE visible
13 Dec -1.4 07:14:49 10° SSW 07:17:43 27° SSE 07:20:38 10° E visible
14 Dec -0.9 06:27:28 10° S 06:29:56 19° SE 06:32:24 10° E visible
15 Dec -0.7 05:40:30 10° SSE 05:42:10 13° SE 05:43:50 10° ESE visible
15 Dec -2.8 07:15:04 10° SW 07:18:21 49° SSE 07:21:38 10° E visible
16 Dec -2.3 06:27:18 10° SW 06:30:25 36° SSE 06:33:34 10° E visible
17 Dec -1.8 05:41:26 22° S 05:42:32 26° SSE 05:45:25 10° E visible
17 Dec -3.6 07:15:38 10° WSW 07:19:01 78° SSE 07:22:24 10° E visible
